TimeCDT,TemperatureF,Dew PointF,Humidity,Sea Level PressureIn,VisibilityMPH,Wind Direction,Wind SpeedMPH,Gust SpeedMPH,PrecipitationIn,Events,Conditions,WindDirDegrees,DateUTC
12:53 AM,52.0,44.1,74,30.27,9.0,ESE,6.9,-,N/A,,Mostly Cloudy,120,2012-10-13 05:53:00
1:53 AM,52.0,45.0,77,30.27,8.0,SE,4.6,-,N/A,,Partly Cloudy,130,2012-10-13 06:53:00
2:53 AM,48.9,44.1,83,30.25,7.0,ESE,6.9,-,N/A,,Clear,110,2012-10-13 07:53:00
3:53 AM,48.0,44.1,86,30.23,6.0,ESE,4.6,-,N/A,,Clear,110,2012-10-13 08:53:00
4:53 AM,48.0,44.1,86,30.21,5.0,ESE,6.9,-,N/A,,Clear,120,2012-10-13 09:53:00
5:53 AM,48.0,44.1,86,30.20,6.0,SE,5.8,-,N/A,,Clear,140,2012-10-13 10:53:00
6:53 AM,48.9,45.0,86,30.20,6.0,SE,6.9,-,N/A,,Clear,140,2012-10-13 11:53:00
7:53 AM,52.0,46.9,83,30.19,5.0,SE,6.9,-,N/A,,Haze,140,2012-10-13 12:53:00
8:18 AM,53.6,46.4,77,30.18,6.0,South,9.2,-,N/A,,Haze,170,2012-10-13 13:18:00
8:53 AM,55.0,50.0,83,30.18,6.0,South,9.2,-,N/A,,Haze,180,2012-10-13 13:53:00
9:53 AM,60.1,54.0,80,30.15,5.0,SSE,10.4,-,N/A,,Haze,160,2012-10-13 14:53:00
10:24 AM,64.4,55.4,73,30.14,5.0,South,15.0,-,N/A,,Haze,190,2012-10-13 15:24:00
10:53 AM,66.0,57.0,73,30.14,5.0,South,13.8,-,N/A,,Haze,180,2012-10-13 15:53:00
11:28 AM,66.2,59.0,78,30.13,5.0,South,12.7,-,N/A,,Haze,190,2012-10-13 16:28:00
11:53 AM,69.1,59.0,70,30.12,5.0,South,13.8,-,N/A,,Haze,190,2012-10-13 16:53:00
12:53 PM,73.0,61.0,66,30.09,6.0,South,17.3,-,N/A,,Haze,190,2012-10-13 17:53:00
1:34 PM,73.4,62.6,69,30.07,6.0,South,13.8,-,N/A,,Haze,180,2012-10-13 18:34:00
1:53 PM,73.9,62.1,66,30.06,6.0,South,13.8,-,N/A,,Haze,190,2012-10-13 18:53:00
2:37 PM,75.2,62.6,65,30.04,5.0,SSW,16.1,21.9,N/A,,Haze,200,2012-10-13 19:37:00
3:10 PM,77.0,64.4,65,30.02,6.0,South,16.1,23.0,N/A,,Haze,180,2012-10-13 20:10:00
3:53 PM,77.0,63.0,62,30.01,6.0,South,19.6,28.8,N/A,,Haze,190,2012-10-13 20:53:00
4:53 PM,77.0,62.1,60,30.00,6.0,South,12.7,23.0,N/A,,Haze,190,2012-10-13 21:53:00
5:53 PM,75.0,62.1,64,29.99,6.0,SSW,11.5,-,N/A,,Haze,200,2012-10-13 22:53:00
7:53 PM,71.1,62.1,73,29.99,7.0,South,10.4,-,N/A,,Clear,180,2012-10-14 00:53:00
9:53 PM,70.0,61.0,73,29.96,7.0,South,12.7,-,N/A,,Clear,180,2012-10-14 02:53:00
10:53 PM,69.1,60.1,73,29.95,7.0,South,11.5,-,N/A,,Mostly Cloudy,170,2012-10-14 03:53:00